SCD 1 (22490 NORAD) Tracking and Keplerian Element Data

This shows tracking and keplerian element data for the satellite.

Feedback or suggestion? Click here.




ElementValue
Catalog22490
NameSCD 1
Epoch Orbit68936
Epoch Day35.19862252
Epoch Year2025
RAAN41.4886
Inclination24.971
Eccentricity0.0041888
Argument of Perigee268.6588
Mean Anonmoly171.7849
Mean Motion14.45711396
Decay Rate9.6E-06
L11 22490U 93009B 25035.19862252 .00000960 00000+0 21286-3 0 9994
L22 22490 24.9710 41.4886 0041888 268.6588 171.7849 14.45711396689365



Live tracking and technical data element details for SCD 1 (NORAD 22490). SCD 1 can be tracked NOW for your location showing map with azimuth and elevation plus other details from your city location.







IsCatalogInMostPopularTable: catalog: 22490, numindb: 377
Update: records affected: 1



GetName: 22490 SCD 1

Hit Count: updated at: Fri, 16 May 2025 11:47:17 GMT